Showing default

COSMOS 2251, 22675

Orbit data source: Space-Track

COSMOS 2251, 22675 is a payload satellite owned by VKS (CIS) in LEO that was launched on Wed, 16 Jun 1993 UTC via a KOSMOS 11K65M launch vehicle from the Plesetsk Missile And Space Complex (PKMTR). Payload-class satellites include a variety of spacecraft equipped with specific instruments for various scientific and technological missions. These include communications satellites like Starlink; space stations such as the ISS; scientific satellites like the Hubble; Earth observation satellites from companies like Planet Labs, Umbra, and HawkEye 360; GPS; miniature CubeSats for education and research; and military/defense satellites.

Loading next visibility...
Identifier
22675, 1993-036A
Orbit
LEO
Country
Flag of CISCIS
Related business
Manufacturer
NPO PM
Mission
Defense Communications
Bus & Motor
STRELA-2M, Unknown motor
Mass
800 kg wet, 800 kg dry
Launch date (UTC)
1993-06-16 (32 years ago)
Launch vehicle
KOSMOS 11K65M
Launch site
Plesetsk Missile And Space Complex (PKMTR)
Object type
Payload
Rocket body
Debris
Shape & HBR
Cyl, 1.5 m
Radar Cross Section
6.283 m², Large (>1 m²)

Expand to show TLE details & history
Last TLE update: 12 hours ago

TLE from 12 hours ago
0 COSMOS 2251
1 22675U 93036A   25260.88773502  .00000081  00000-0  38993-4 0  9993
2 22675  74.0373 112.7438 0025521 220.0648 139.8622 14.33165711685430
Epoch: 2025-09-17T21:18Z
TLE epoch observation values (Epoch: 2025-09-17T21:18:20.305Z)
Latitude
-0.00002°
Longitude
156.10196°
Altitude
797.766 km
Speed
7.448 km/s
True Right ascension
07h 30m 58s
True Declination
0° 00' 00"
Sunlit
Object was in daylight at epoch
Visualization orbit readout
Latitude
Unknown
Longitude
Unknown
Altitude
Unknown
Speed
Unknown
Apparent Right ascension
Unknown
Apparent Declination
Unknown
Sunlit
N/A
Visualization observer readout
Local Sidereal Time
01:46:32
Azimuth
Unknown
Elevation
Unknown
Doppler factor
Unknown
Orbital elements
Apogee altitude
797.061 km
Perigee altitude
760.53 km
Semi-major axis
7,156.933 km
Eccentricity
0.00255
Inclination
74.0373°
RAAN
112.7438°
Arg. of periapsis
220.0648°
True anomaly
140.05026°
Mean anomaly
139.8622°
Eccentric anomaly
139.95628°
Mean motion
3.5847 °/min
Orbital period
100.43 mins
BSTAR
0.000038993
Loading maneuver chart data...
Computing Atmospheric mass density...

Documentation

Showing up to 5 results
|